TimeEDT,TemperatureF,Dew PointF,Humidity,Sea Level PressureIn,VisibilityMPH,Wind Direction,Wind SpeedMPH,Gust SpeedMPH,PrecipitationIn,Events,Conditions,WindDirDegrees,DateUTC
12:15 AM,42.8,-72.4,4,30.24,10.0,West,11.5,20.7,0.00,,Clear,280,2013-03-27 04:15:00
12:35 AM,42.8,-72.4,4,30.24,10.0,West,8.1,-,0.00,,Clear,280,2013-03-27 04:35:00
12:55 AM,42.8,-74.2,4,30.24,10.0,West,6.9,-,0.00,,Clear,270,2013-03-27 04:55:00
1:15 AM,42.8,-74.2,4,30.24,10.0,West,10.4,-,0.00,,Clear,280,2013-03-27 05:15:00
1:35 AM,42.8,-74.2,4,30.24,10.0,West,5.8,-,0.00,,Clear,280,2013-03-27 05:35:00
1:55 AM,41.0,-76.0,4,30.24,10.0,West,8.1,-,0.00,,Clear,260,2013-03-27 05:55:00
2:15 AM,41.0,-76.0,4,30.24,10.0,West,5.8,-,0.00,,Clear,270,2013-03-27 06:15:00
2:35 AM,39.2,-74.2,4,30.23,10.0,NW,5.8,-,0.00,,Clear,310,2013-03-27 06:35:00
2:55 AM,39.2,-76.0,4,30.23,10.0,NW,5.8,-,0.00,,Clear,310,2013-03-27 06:55:00
3:15 AM,39.2,-76.0,4,30.23,10.0,NW,6.9,-,0.00,,Clear,310,2013-03-27 07:15:00
3:35 AM,39.2,-76.0,4,30.23,10.0,NW,8.1,-,0.00,,Clear,310,2013-03-27 07:35:00
3:55 AM,39.2,-76.0,4,30.23,10.0,NW,6.9,-,0.00,,Clear,320,2013-03-27 07:55:00
4:15 AM,39.2,-76.0,4,30.23,10.0,NW,6.9,-,0.00,,Clear,320,2013-03-27 08:15:00
4:55 AM,37.4,-76.0,4,30.23,10.0,NW,6.9,-,0.00,,Clear,310,2013-03-27 08:55:00
5:15 AM,37.4,-76.0,4,30.24,10.0,NW,5.8,-,0.00,,Clear,310,2013-03-27 09:15:00
5:35 AM,37.4,-76.0,4,30.24,10.0,NW,5.8,-,0.00,,Clear,310,2013-03-27 09:35:00
5:55 AM,37.4,-77.8,4,30.24,10.0,WNW,3.5,-,0.00,,Clear,300,2013-03-27 09:55:00
6:15 AM,37.4,-76.0,4,30.25,10.0,WNW,5.8,-,0.00,,Clear,290,2013-03-27 10:15:00
6:50 AM,39.2,32.0,75,30.25,10.0,West,6.9,-,N/A,,Clear,270,2013-03-27 10:50:00
7:50 AM,39.2,30.2,70,30.28,10.0,WSW,6.9,-,N/A,,Clear,240,2013-03-27 11:50:00
8:50 AM,41.0,32.0,70,30.30,10.0,North,9.2,-,N/A,,Clear,360,2013-03-27 12:50:00
10:20 AM,44.6,30.2,57,30.30,10.0,NNW,12.7,-,N/A,,Clear,340,2013-03-27 14:20:00
10:50 AM,46.4,26.6,46,30.30,10.0,NNW,11.5,-,N/A,,Clear,330,2013-03-27 14:50:00
11:50 AM,50.0,30.2,47,30.29,10.0,NW,4.6,-,N/A,,Clear,320,2013-03-27 15:50:00
12:57 PM,50.0,23.0,35,30.28,10.0,WSW,11.5,-,N/A,,Clear,250,2013-03-27 16:57:00
1:50 PM,51.8,28.4,41,30.26,10.0,NNW,8.1,-,N/A,,Clear,340,2013-03-27 17:50:00
2:50 PM,53.6,30.2,41,30.24,10.0,South,5.8,-,N/A,,Clear,190,2013-03-27 18:50:00
3:50 PM,53.6,32.0,44,30.23,10.0,SSE,6.9,-,N/A,,Clear,160,2013-03-27 19:50:00
4:50 PM,53.6,33.8,47,30.22,10.0,SSE,6.9,-,N/A,,Clear,150,2013-03-27 20:50:00
5:50 PM,53.6,37.4,54,30.22,10.0,SSE,6.9,-,N/A,,Clear,160,2013-03-27 21:50:00
6:50 PM,53.6,39.2,58,30.22,10.0,South,4.6,-,N/A,,Clear,180,2013-03-27 22:50:00
7:50 PM,48.2,41.0,76,30.23,10.0,Calm,Calm,-,N/A,,Clear,0,2013-03-27 23:50:00
9:15 PM,44.6,44.6,100,30.25,10.0,Calm,Calm,-,0.00,,Clear,0,2013-03-28 01:15:00
9:35 PM,42.8,42.8,100,30.25,10.0,Calm,Calm,-,0.00,,Clear,0,2013-03-28 01:35:00
9:55 PM,42.8,42.8,100,30.26,10.0,Calm,Calm,-,0.00,,Clear,0,2013-03-28 01:55:00
10:15 PM,42.8,42.8,100,30.26,10.0,Calm,Calm,-,0.00,,Clear,0,2013-03-28 02:15:00
10:35 PM,41.0,41.0,100,30.26,10.0,Calm,Calm,-,0.00,,Clear,0,2013-03-28 02:35:00
10:55 PM,41.0,41.0,100,30.26,10.0,Calm,Calm,-,0.00,,Clear,0,2013-03-28 02:55:00
11:15 PM,39.2,39.2,100,30.26,10.0,Calm,Calm,-,0.00,,Clear,0,2013-03-28 03:15:00
11:35 PM,39.2,39.2,100,30.26,10.0,WSW,3.5,-,0.00,,Clear,240,2013-03-28 03:35:00
11:55 PM,39.2,39.2,100,30.26,10.0,Calm,Calm,-,0.00,,Clear,0,2013-03-28 03:55:00